Time,TemperatureF,DewpointF,PressureIn,WindDirection,WindDirectionDegrees,WindSpeedMPH,WindSpeedGustMPH,Humidity,HourlyPrecipIn,Conditions,Clouds,dailyrainin,SoftwareType,DateUTC
2015-08-02 00:09:00,63.8,55.0,29.83,South,173,4.0,6.0,74,0.00,,,0.00,weatherlink.com 1.10,2015-08-02 04:09:00,
2015-08-02 00:24:00,63.6,55.0,29.83,South,175,5.0,7.0,74,0.00,,,0.00,weatherlink.com 1.10,2015-08-02 04:24:00,
2015-08-02 00:39:00,63.4,55.0,29.83,South,178,5.0,6.0,75,0.00,,,0.00,weatherlink.com 1.10,2015-08-02 04:39:00,
2015-08-02 00:54:00,63.3,55.0,29.83,South,178,4.0,7.0,74,0.00,,,0.00,weatherlink.com 1.10,2015-08-02 04:54:00,
2015-08-02 01:09:00,62.9,55.0,29.84,South,173,4.0,7.0,75,0.00,,,0.00,weatherlink.com 1.10,2015-08-02 05:09:00,
2015-08-02 01:24:00,62.2,55.0,29.83,South,173,5.0,6.0,77,0.00,,,0.00,weatherlink.com 1.10,2015-08-02 05:24:00,
2015-08-02 01:39:00,61.7,55.0,29.84,South,178,6.0,6.0,78,0.00,,,0.00,weatherlink.com 1.10,2015-08-02 05:39:00,
2015-08-02 01:54:00,61.5,55.0,29.83,SSE,167,5.0,6.0,78,0.00,,,0.00,weatherlink.com 1.10,2015-08-02 05:54:00,
2015-08-02 02:10:00,61.2,55.0,29.83,South,175,4.0,7.0,79,0.00,,,0.00,weatherlink.com 1.10,2015-08-02 06:10:00,
2015-08-02 02:24:00,61.2,54.0,29.83,South,173,6.0,7.0,78,0.00,,,0.00,weatherlink.com 1.10,2015-08-02 06:24:00,
2015-08-02 02:39:00,61.1,55.0,29.84,South,184,6.0,7.0,79,0.00,,,0.00,weatherlink.com 1.10,2015-08-02 06:39:00,
2015-08-02 02:54:00,61.0,54.0,29.84,South,178,5.0,7.0,79,0.00,,,0.00,weatherlink.com 1.10,2015-08-02 06:54:00,
2015-08-02 03:09:00,60.7,55.0,29.83,South,176,5.0,7.0,80,0.00,,,0.00,weatherlink.com 1.10,2015-08-02 07:09:00,
2015-08-02 03:24:00,60.4,55.0,29.84,South,183,5.0,7.0,81,0.00,,,0.00,weatherlink.com 1.10,2015-08-02 07:24:00,
2015-08-02 03:39:00,60.4,55.0,29.83,South,177,4.0,6.0,81,0.00,,,0.00,weatherlink.com 1.10,2015-08-02 07:39:00,
2015-08-02 03:54:00,60.8,55.0,29.83,South,180,4.0,7.0,81,0.00,,,0.00,weatherlink.com 1.10,2015-08-02 07:54:00,
2015-08-02 04:09:00,61.0,56.0,29.83,SSW,200,6.0,6.0,82,0.00,,,0.00,weatherlink.com 1.10,2015-08-02 08:09:00,
2015-08-02 04:24:00,61.2,56.0,29.82,SW,214,5.0,8.0,82,0.00,,,0.00,weatherlink.com 1.10,2015-08-02 08:24:00,
2015-08-02 04:39:00,61.7,56.0,29.82,SSW,207,7.0,8.0,82,0.00,,,0.00,weatherlink.com 1.10,2015-08-02 08:39:00,
2015-08-02 04:54:00,61.3,56.0,29.82,SSW,201,6.0,7.0,82,0.00,,,0.00,weatherlink.com 1.10,2015-08-02 08:54:00,
2015-08-02 05:09:00,61.5,56.0,29.82,South,186,3.0,8.0,82,0.00,,,0.00,weatherlink.com 1.10,2015-08-02 09:09:00,
2015-08-02 05:24:00,60.7,56.0,29.82,South,181,5.0,7.0,84,0.00,,,0.00,weatherlink.com 1.10,2015-08-02 09:24:00,
2015-08-02 05:39:00,60.1,56.0,29.83,South,178,6.0,7.0,85,0.00,,,0.00,weatherlink.com 1.10,2015-08-02 09:39:00,
2015-08-02 05:55:00,59.5,55.0,29.83,South,182,5.0,7.0,86,0.00,,,0.00,weatherlink.com 1.10,2015-08-02 09:55:00,
2015-08-02 06:10:00,59.3,56.0,29.83,South,181,5.0,7.0,87,0.00,,,0.00,weatherlink.com 1.10,2015-08-02 10:10:00,
2015-08-02 06:25:00,59.7,56.0,29.84,SSW,207,5.0,7.0,87,0.00,,,0.00,weatherlink.com 1.10,2015-08-02 10:25:00,
2015-08-02 06:40:00,60.8,56.0,29.84,South,184,6.0,10.0,85,0.00,,,0.00,weatherlink.com 1.10,2015-08-02 10:40:00,
2015-08-02 06:55:00,60.8,57.0,29.84,SSW,211,4.0,7.0,86,0.00,,,0.00,weatherlink.com 1.10,2015-08-02 10:55:00,
2015-08-02 07:10:00,61.6,57.0,29.84,SSW,199,6.0,7.0,86,0.00,,,0.00,weatherlink.com 1.10,2015-08-02 11:10:00,
2015-08-02 07:25:00,62.1,58.0,29.84,South,171,4.0,8.0,85,0.00,,,0.00,weatherlink.com 1.10,2015-08-02 11:25:00,
2015-08-02 07:40:00,62.4,58.0,29.85,South,170,5.0,7.0,85,0.00,,,0.00,weatherlink.com 1.10,2015-08-02 11:40:00,
2015-08-02 07:55:00,62.6,58.0,29.85,South,176,4.0,7.0,85,0.00,,,0.00,weatherlink.com 1.10,2015-08-02 11:55:00,
2015-08-02 08:10:00,63.8,59.0,29.85,South,188,4.0,7.0,83,0.00,,,0.00,weatherlink.com 1.10,2015-08-02 12:10:00,
2015-08-02 08:25:00,64.7,59.0,29.85,SW,229,8.0,12.0,82,0.00,,,0.00,weatherlink.com 1.10,2015-08-02 12:25:00,
2015-08-02 08:40:00,65.2,60.0,29.85,SSW,196,8.0,10.0,82,0.00,,,0.00,weatherlink.com 1.10,2015-08-02 12:40:00,
2015-08-02 08:55:00,65.9,60.0,29.85,South,185,3.0,12.0,80,0.00,,,0.00,weatherlink.com 1.10,2015-08-02 12:55:00,
2015-08-02 09:10:00,66.8,60.0,29.85,SW,218,5.0,10.0,80,0.00,,,0.00,weatherlink.com 1.10,2015-08-02 13:10:00,
2015-08-02 09:25:00,67.4,61.0,29.85,South,185,4.0,9.0,79,0.00,,,0.00,weatherlink.com 1.10,2015-08-02 13:25:00,
2015-08-02 09:40:00,68.2,61.0,29.86,SW,232,4.0,9.0,79,0.00,,,0.00,weatherlink.com 1.10,2015-08-02 13:40:00,
2015-08-02 09:55:00,69.2,62.0,29.86,SSW,211,5.0,7.0,78,0.00,,,0.00,weatherlink.com 1.10,2015-08-02 13:55:00,
2015-08-02 10:10:00,70.2,63.0,29.86,WSW,244,4.0,7.0,77,0.00,,,0.00,weatherlink.com 1.10,2015-08-02 14:10:00,
2015-08-02 10:25:00,70.8,62.0,29.86,WNW,296,3.0,8.0,73,0.00,,,0.00,weatherlink.com 1.10,2015-08-02 14:25:00,
2015-08-02 10:40:00,71.9,61.0,29.85,West,267,4.0,10.0,69,0.00,,,0.00,weatherlink.com 1.10,2015-08-02 14:40:00,
2015-08-02 10:55:00,72.3,59.0,29.85,West,267,6.0,11.0,63,0.00,,,0.00,weatherlink.com 1.10,2015-08-02 14:55:00,
2015-08-02 11:11:00,73.1,61.0,29.84,WSW,241,2.0,9.0,67,0.00,,,0.00,weatherlink.com 1.10,2015-08-02 15:11:00,
2015-08-02 11:25:00,73.5,60.0,29.84,SW,234,7.0,10.0,63,0.00,,,0.00,weatherlink.com 1.10,2015-08-02 15:25:00,
2015-08-02 11:40:00,73.8,59.0,29.84,South,176,12.0,12.0,61,0.00,,,0.00,weatherlink.com 1.10,2015-08-02 15:40:00,
2015-08-02 11:55:00,74.5,58.0,29.83,West,268,9.0,11.0,57,0.00,,,0.00,weatherlink.com 1.10,2015-08-02 15:55:00,
2015-08-02 12:10:00,75.2,58.0,29.83,West,265,6.0,10.0,56,0.00,,,0.00,weatherlink.com 1.10,2015-08-02 16:10:00,
2015-08-02 12:25:00,75.6,58.0,29.84,SW,219,5.0,10.0,55,0.00,,,0.00,weatherlink.com 1.10,2015-08-02 16:25:00,
2015-08-02 12:40:00,76.1,58.0,29.84,West,264,1.0,10.0,54,0.00,,,0.00,weatherlink.com 1.10,2015-08-02 16:40:00,
2015-08-02 12:55:00,76.7,58.0,29.84,SSW,210,6.0,11.0,53,0.00,,,0.00,weatherlink.com 1.10,2015-08-02 16:55:00,
2015-08-02 13:10:00,77.1,58.0,29.83,WNW,282,4.0,13.0,52,0.00,,,0.00,weatherlink.com 1.10,2015-08-02 17:10:00,
2015-08-02 13:25:00,77.3,59.0,29.83,SSW,194,7.0,11.0,53,0.00,,,0.00,weatherlink.com 1.10,2015-08-02 17:25:00,
2015-08-02 13:41:00,77.5,58.0,29.83,WSW,238,4.0,11.0,52,0.00,,,0.00,weatherlink.com 1.10,2015-08-02 17:41:00,
2015-08-02 13:56:00,78.2,60.0,29.82,WNW,292,3.0,11.0,53,0.00,,,0.00,weatherlink.com 1.10,2015-08-02 17:56:00,
2015-08-02 14:11:00,78.4,59.0,29.82,SW,223,4.0,14.0,52,0.00,,,0.00,weatherlink.com 1.10,2015-08-02 18:11:00,
2015-08-02 14:26:00,78.9,61.0,29.81,SSW,213,7.0,14.0,55,0.00,,,0.00,weatherlink.com 1.10,2015-08-02 18:26:00,
2015-08-02 14:41:00,79.3,59.0,29.81,SW,227,4.0,14.0,50,0.00,,,0.00,weatherlink.com 1.10,2015-08-02 18:41:00,
2015-08-02 14:56:00,79.6,61.0,29.80,SSW,206,7.0,15.0,53,0.00,,,0.00,weatherlink.com 1.10,2015-08-02 18:56:00,
2015-08-02 15:11:00,79.8,61.0,29.79,WSW,237,11.0,15.0,52,0.00,,,0.00,weatherlink.com 1.10,2015-08-02 19:11:00,
2015-08-02 15:26:00,79.8,61.0,29.79,South,186,9.0,17.0,52,0.00,,,0.00,weatherlink.com 1.10,2015-08-02 19:26:00,
2015-08-02 15:41:00,80.2,60.0,29.79,South,180,9.0,17.0,50,0.00,,,0.00,weatherlink.com 1.10,2015-08-02 19:41:00,
2015-08-02 15:56:00,81.0,62.0,29.78,SSW,207,10.0,14.0,53,0.00,,,0.00,weatherlink.com 1.10,2015-08-02 19:56:00,
2015-08-02 16:11:00,80.6,62.0,29.77,WSW,246,7.0,19.0,54,0.00,,,0.00,weatherlink.com 1.10,2015-08-02 20:11:00,
2015-08-02 16:26:00,80.8,63.0,29.78,SSW,207,6.0,15.0,54,0.00,,,0.00,weatherlink.com 1.10,2015-08-02 20:26:00,